Regional Weather Roundup
Issued by NWS San Diego, CA

Home | Current Version | Previous Version | Text Only | Print | Product List | Glossary On
Versions: 1 2 3 4 5 6 7 8 9 10 11 12 13 14 15 16 17 18 19 20 21 22 23 24 25 26 27 28 29 30 31 32 33 34 35 36 37 38 39 40 41 42 43 44 45 46 47 48 49 50
000
ASUS46 KSGX 271111
RWRSGX

SAN DIEGO HOURLY WEATHER ROUNDUP
NATIONAL WEATHER SERVICE SAN DIEGO CA
300 AM PST FRI FEB 27 2015

NOTE: "FAIR" INDICATES FEW OR NO CLOUDS BELOW 12,000 FEET WITH NO
SIGNIFICANT WEATHER AND/OR OBSTRUCTIONS TO VISIBILITY.

CAZ042-043-060-061-PZZ750-775-271200-

GREATER SAN DIEGO AREA

CITY           SKY/WX    TMP DP  RH WIND       PRES   REMARKS
LINDBERGH FLD  CLOUDY    58  49  72 E7        29.84F
NATIONAL CITY    N/A     55  52  89 E3        29.84F
CHULA VISTA      N/A     50  49  95 CALM      29.76F
IMPERIAL BEACH CLOUDY    55  51  86 SE7       29.83F
BROWN FIELD    CLOUDY    51  49  92 E6        29.83F
MIRAMAR MCAS   CLOUDY    56  51  84 E3        29.83F
MONTGOMERY FLD CLOUDY    55  51  86 E5        29.83F

$$

NORTH SAN DIEGO COUNTY

CITY           SKY/WX    TMP DP  RH WIND       PRES   REMARKS
CAMP PENDLETON CLOUDY    50  45  83 E3        29.85R
OCEANSIDE AP   CLOUDY    50  47  89 NE3       29.84S
VISTA            N/A     54  49  82 CALM      29.82F
CARLSBAD       CLOUDY    56  51  84 E3        29.82F
DEL MAR          N/A     54  52  92 CALM      29.85F
FALLBROOK        N/A     52  52 100 CALM      29.86F
SAN MARCOS       N/A    N/A N/A N/A CALM      29.82F
POWAY            N/A     52  49  90 CALM      29.86F

$$

EAST SAN DIEGO COUNTY

CITY           SKY/WX    TMP DP  RH WIND       PRES   REMARKS
RAMONA         CLOUDY    48  46  93 NE3       29.83F FOG
SANTEE LAKES     N/A     51  49  93 CALM      29.85F
LA MESA          N/A     53  49  87 E2        29.78F
JAMUL            N/A     49  47  94 CALM      29.83F
DESCANSO N       N/A     37  32  82 E2        29.73F
MT. LAGUNA OBS   N/A     41  25  51 W12       29.46F
CAMPO            N/A     37  35  92 E5        29.80F WCI  33

$$

ORANGE COUNTY AND THE LOS ANGELES BASIN

CITY           SKY/WX    TMP DP  RH WIND       PRES   REMARKS
JOHN WAYNE AP  PTCLDY    57  49  74 E6        29.83R
LAGUNA BEACH     N/A     51  51  98 N5        29.79R
LAKE FOREST FR   N/A     52  45  79 CALM      29.74R
SANTA ANA        N/A     53  48  84 CALM      29.79S
HUNTINGTON BCH   N/A     51  50  95 CALM      29.85R
LOS ALAMITOS   FAIR      52  50  94 E3        29.83S
FULLERTON      MOCLDY    55  50  83 E5        29.83S
LONG BEACH     MOCLDY    55  51  86 E5        29.83R
L.A. AP        PTCLDY    52  50  93 E5        29.82F
L.A. DOWNTOWN  PTCLDY   N/A N/A N/A SE3       29.82F

$$

THE INLAND EMPIRE

CITY           SKY/WX    TMP DP  RH WIND       PRES   REMARKS
CORONA         CLEAR     41  41 100 CALM      29.84S
CHINO          CLEAR     49  46  90 CALM      29.84S FOG
ONTARIO        MOCLDY    50  47  89 W5        29.82S
RIVERSIDE AP   CLEAR     50  44  80 SE3       29.84R
RIV CYN CREST    N/A     50  50  98 S1          N/A
MORENO VALLEY    N/A     49  48  97 CALM      29.04R
MARCH ARB      CLEAR     41  41  99 CALM      29.83R
HORSETHIEF CYN   N/A     46  41  82 S2        29.82R
PERRIS           N/A     46  43  88 CALM        N/A
MENIFEE          N/A     47  46  95 CALM      29.92R
HEMET EAST       N/A     47  37  69 CALM      29.82S
FRENCH VALLEY  CLOUDY    46  43  87 CALM      29.84R
TEMECULA         N/A     53  52  95 SW6       29.82R

$$

SAN BERNARDINO AND RIVERSIDE COUNTY MOUNTAINS

CITY           SKY/WX    TMP DP  RH WIND       PRES   REMARKS
BIG BEAR AP    CLEAR     36  21  55 SW8       29.87F WCI  29
ANGELUS OAKS     N/A     37  26  64 CALM      29.75F
PINE COVE        N/A     42  27  56 N3        29.76F

$$

SOUTHERN DESERT INCLUDING THE COACHELLA VALLEY

CITY           SKY/WX    TMP DP  RH WIND       PRES   REMARKS
PALM SPRINGS   CLEAR     60  42  51 CALM      29.73S
THOUSAND PALMS   N/A     63  45  50 W17       29.70S
PALM DESERT      N/A     55  45  70 CALM      27.85S
THERMAL        CLEAR     63  44  50 N7        29.69F
BLYTHE         CLEAR     50  31  48 N8        29.70F
IMPERIAL AP    CLEAR     54  39  57 S3        29.70F
EL CENTRO NAS  CLEAR     53  35  50 SE6       29.70F
YUMA AZ        MOCLDY    56  26  31 CALM      29.71F

$$

UPPER DESERT

CITY           SKY/WX    TMP DP  RH WIND       PRES   REMARKS
VICTORVILLE AP CLEAR     50  30  46 W9        29.81F
HESPERIA         N/A     42  35  76 CALM      29.94S
APPLE VALLEY     N/A     41  34  75 CALM      29.94R
PALMDALE       CLEAR     45  32  60 S6        29.82F
LANCASTER      CLEAR     51  36  56 W21G28    29.81F
EDWARDS AFB    CLEAR     55  32  41 VRB6      29.77F
DAGGETT        CLEAR     48  35  60 W8        29.80S
29 PALMS N     CLEAR     54  31  41 NW8       29.84S
NEEDLES        PTCLDY    55  29  36 CALM      29.74R

$$

REGIONAL REPORTS

CITY           SKY/WX    TMP DP  RH WIND       PRES   REMARKS
SANTA BARBARA  CLEAR     47  44  90 NW5       29.79F
SANDBERG       CLEAR     45  32  60 VRB3      29.87F
MT. WILSON       N/A     41  18  38 MISG        N/A
LAS VEGAS NV   PTCLDY    52  23  32 CALM      29.75F
PHOENIX AZ     PTCLDY    53  33  46 E8        29.73F
TIJUANA        MOCLDY    50  46  87 CALM      29.87S
ENSENADA NW      N/A     57  32  38 E6        29.84S

$$

OFFSHORE ISLANDS

CITY           SKY/WX    TMP DP  RH WIND       PRES   REMARKS
CATALINA ARPT  PTCLDY    49  49 100 W6        29.83S FOG
SAN NICOLAS IS MOCLDY   N/A N/A N/A NW24G30   29.82F HAZE

$$

MARINE AND OFFSHORE BUOY REPORTS

STATION/POSITION SKY/WX   TEMP    WIND        PRES    SWELL
                          AIR SEA DIR/SP/G            HT/PER/DIR
                          (F)     (DEG/KT/KT) (MB)    (FT/S/D)
TANNER BANKS               60 62  330/ 17/ 21 1010.3F   7/320/11
S CLEMENTE BASIN           60 62  210/  4/  8 1009.2F   5/290/ 8
SAN NICOLAS IS.               60                N/A     5/310/11
SO. S. ROSA ISLA           59 60  320/ 21/ 27 1009.7R   7/10
W. S. BARBARA CH           58 59  330/ 23/ 27 1009.6F   7/320/11
S. MONICA BASIN            60 63   30/  6/  8 1009.8R   3/260/ 6
S PEDRO CHANNEL               62                N/A     2/270/11
DANA POINT                    62                N/A     2/200/15
CMP PENDLETON NS              62                N/A     2/220/15
OCEANSIDE OFFSHR              62                N/A     2/190/14
TORREY PINES OTR              63                N/A     2/200/15
LA JOLLA 1                 57 63  110/  5/  7 1010.8S
MISSION BAY BUOY              63                N/A     2/280/11
SAN DIEGO BAY                 65              1011.2S
POINT LOMA SOUTH              63                N/A     2/280/11

$$



USA.gov is the U.S. government's official web portal to all federal, state and local government web resources and services.